Location: Peterborough
(44.3091°N, 78.3197°W)
Time: 09:33:28
(UTC-04:00)

A-11 Canister half - Pass Details

Date: 17 September 2024
Orbit: 1515 x 1684 km, 47.2° (Epoch: 02 October)

Event Time Altitude Azimuth Distance (km) Brightness Sun altitude
Rises 00:06:33 0° 289° (WNW) 4,675 12.0 -41.6°
Reaches altitude 10° 00:09:35 10° 289° (WNW) 3,683 11.3 -41.8°
Enters shadow 00:15:25 45° 287° (WNW) 1,971 9.6 -42.2°
